Back to catalog

CZ-3C DEB

AliveGTO
NORAD 40200·DEBRIS·🇨🇳 China

Launched Feb 24, 2012 from Xichang Satellite Launch Center

Loading…

TLE

StaleSource: Space-Track

Epoch: Sep 8, 2026, 03:27 UTC

1 40200U 12008K   26251.14381312 -.00000082  00000-0  00000-0 0  9997
2 40200  20.6841 231.0781 6978681 175.9268 196.3862  2.19220943100541

Track CZ-3C DEB in real time with AllMySat

Download on the App Store